Time,TemperatureF,DewpointF,PressureIn,WindDirection,WindDirectionDegrees,WindSpeedMPH,WindSpeedGustMPH,Humidity,HourlyPrecipIn,Conditions,Clouds,dailyrainin,SoftwareType,DateUTC
2014-10-31 00:03:00,53.8,42.6,29.85,East,81,0.0,1.0,66,0.00,,,0.00,meteobridge,2014-10-31 07:03:00,
2014-10-31 00:08:00,53.8,43.2,29.86,East,81,0.0,0.0,67,0.00,,,0.00,meteobridge,2014-10-31 07:08:00,
2014-10-31 00:13:00,53.8,43.5,29.85,East,81,0.0,0.0,68,0.00,,,0.00,meteobridge,2014-10-31 07:13:00,
2014-10-31 00:19:00,53.8,45.0,29.86,East,81,0.0,0.0,72,0.00,,,0.00,meteobridge,2014-10-31 07:19:00,
2014-10-31 00:24:00,53.8,45.3,29.86,East,81,0.0,0.0,73,0.00,,,0.00,meteobridge,2014-10-31 07:24:00,
2014-10-31 00:29:00,53.6,44.8,29.86,East,81,0.0,0.0,72,0.00,,,0.00,meteobridge,2014-10-31 07:29:00,
2014-10-31 00:34:00,53.4,44.2,29.86,East,81,0.0,0.0,71,0.00,,,0.00,meteobridge,2014-10-31 07:34:00,
2014-10-31 00:39:00,53.2,43.7,29.86,East,81,0.0,0.0,70,0.00,,,0.00,meteobridge,2014-10-31 07:39:00,
2014-10-31 00:44:00,53.2,43.7,29.86,East,81,0.0,0.0,70,0.00,,,0.00,meteobridge,2014-10-31 07:44:00,
2014-10-31 00:49:00,53.1,43.5,29.86,East,81,0.0,0.0,70,0.00,,,0.00,meteobridge,2014-10-31 07:49:00,
2014-10-31 00:54:00,52.9,44.1,29.86,East,81,0.0,0.0,72,0.00,,,0.00,meteobridge,2014-10-31 07:54:00,
2014-10-31 00:59:00,52.5,43.7,29.86,East,81,0.0,0.0,72,0.00,,,0.00,meteobridge,2014-10-31 07:59:00,
2014-10-31 01:04:00,52.3,44.2,29.87,East,81,0.0,0.0,74,0.00,,,0.00,meteobridge,2014-10-31 08:04:00,
2014-10-31 01:09:00,52.0,44.2,29.87,East,81,0.0,0.0,75,0.00,,,0.00,meteobridge,2014-10-31 08:09:00,
2014-10-31 01:14:00,51.6,43.9,29.87,East,81,0.0,0.0,75,0.00,,,0.00,meteobridge,2014-10-31 08:14:00,
2014-10-31 01:19:00,51.4,44.1,29.87,East,81,0.0,0.0,76,0.00,,,0.00,meteobridge,2014-10-31 08:19:00,
2014-10-31 01:24:00,51.3,44.6,29.87,East,81,0.0,0.0,78,0.00,,,0.00,meteobridge,2014-10-31 08:24:00,
2014-10-31 01:29:00,50.9,44.2,29.88,East,80,0.0,1.0,78,0.00,,,0.00,meteobridge,2014-10-31 08:29:00,
2014-10-31 01:34:00,50.5,43.9,29.87,East,80,0.0,0.0,78,0.00,,,0.00,meteobridge,2014-10-31 08:34:00,
2014-10-31 01:39:00,50.4,44.1,29.87,East,80,0.0,0.0,79,0.00,,,0.00,meteobridge,2014-10-31 08:39:00,
2014-10-31 01:44:00,50.2,44.2,29.87,East,80,0.0,0.0,80,0.00,,,0.00,meteobridge,2014-10-31 08:44:00,
2014-10-31 01:49:00,50.0,44.1,29.87,East,81,0.0,0.0,80,0.00,,,0.00,meteobridge,2014-10-31 08:49:00,
2014-10-31 01:54:00,49.6,44.1,29.87,East,81,0.0,0.0,81,0.00,,,0.00,meteobridge,2014-10-31 08:54:00,
2014-10-31 01:59:00,49.6,44.1,29.88,East,80,0.0,0.0,81,0.00,,,0.00,meteobridge,2014-10-31 08:59:00,
2014-10-31 02:04:00,49.5,44.2,29.88,East,80,0.0,0.0,82,0.00,,,0.00,meteobridge,2014-10-31 09:04:00,
2014-10-31 02:09:00,49.3,44.1,29.88,East,80,0.0,0.0,82,0.00,,,0.00,meteobridge,2014-10-31 09:09:00,
2014-10-31 02:14:00,49.1,44.2,29.88,East,81,0.0,1.0,83,0.00,,,0.00,meteobridge,2014-10-31 09:14:00,
2014-10-31 02:19:00,48.9,44.1,29.88,East,81,0.0,0.0,83,0.00,,,0.00,meteobridge,2014-10-31 09:19:00,
2014-10-31 02:24:00,48.9,44.2,29.88,East,81,0.0,1.0,84,0.00,,,0.00,meteobridge,2014-10-31 09:24:00,
2014-10-31 02:29:00,48.9,44.2,29.88,East,81,0.0,0.0,84,0.00,,,0.00,meteobridge,2014-10-31 09:29:00,
2014-10-31 02:34:00,48.9,44.2,29.88,East,81,0.0,1.0,84,0.00,,,0.00,meteobridge,2014-10-31 09:34:00,
2014-10-31 02:39:00,48.9,44.2,29.88,East,81,0.0,1.0,84,0.00,,,0.00,meteobridge,2014-10-31 09:39:00,
2014-10-31 02:44:00,49.1,44.4,29.88,East,81,0.0,0.0,84,0.00,,,0.00,meteobridge,2014-10-31 09:44:00,
2014-10-31 02:49:00,49.3,44.6,29.88,East,81,0.0,0.0,84,0.00,,,0.00,meteobridge,2014-10-31 09:49:00,
2014-10-31 02:54:00,49.3,44.6,29.88,East,81,0.0,0.0,84,0.00,,,0.00,meteobridge,2014-10-31 09:54:00,
2014-10-31 02:59:00,49.3,44.6,29.88,East,81,0.0,0.0,84,0.00,,,0.00,meteobridge,2014-10-31 09:59:00,
2014-10-31 03:05:00,49.3,44.6,29.88,East,81,0.0,0.0,84,0.00,,,0.00,meteobridge,2014-10-31 10:05:00,
2014-10-31 03:09:00,49.3,44.6,29.89,East,81,0.0,0.0,84,0.00,,,0.00,meteobridge,2014-10-31 10:09:00,
2014-10-31 03:15:00,49.3,44.6,29.89,East,81,0.0,0.0,84,0.00,,,0.00,meteobridge,2014-10-31 10:15:00,
2014-10-31 03:20:00,49.3,44.6,29.89,East,81,0.0,0.0,84,0.00,,,0.00,meteobridge,2014-10-31 10:20:00,
2014-10-31 03:25:00,49.1,44.4,29.88,East,81,0.0,1.0,84,0.00,,,0.00,meteobridge,2014-10-31 10:25:00,
2014-10-31 03:30:00,48.9,44.2,29.88,East,81,0.0,0.0,84,0.00,,,0.00,meteobridge,2014-10-31 10:30:00,
2014-10-31 03:35:00,48.9,44.2,29.88,East,81,0.0,1.0,84,0.00,,,0.00,meteobridge,2014-10-31 10:35:00,
2014-10-31 03:40:00,48.7,44.1,29.88,East,81,0.0,1.0,84,0.00,,,0.00,meteobridge,2014-10-31 10:40:00,
2014-10-31 03:45:00,48.7,44.4,29.88,East,81,0.0,0.0,85,0.00,,,0.00,meteobridge,2014-10-31 10:45:00,
2014-10-31 03:50:00,48.7,44.1,29.88,East,81,0.0,0.0,84,0.00,,,0.00,meteobridge,2014-10-31 10:50:00,
2014-10-31 03:55:00,48.7,44.1,29.88,East,81,0.0,0.0,84,0.00,,,0.00,meteobridge,2014-10-31 10:55:00,
2014-10-31 04:00:00,48.7,44.1,29.87,East,81,0.0,0.0,84,0.00,,,0.00,meteobridge,2014-10-31 11:00:00,
2014-10-31 04:05:00,48.7,44.1,29.87,East,81,0.0,1.0,84,0.00,,,0.00,meteobridge,2014-10-31 11:05:00,
2014-10-31 04:10:00,48.7,44.1,29.87,East,81,0.0,0.0,84,0.00,,,0.00,meteobridge,2014-10-31 11:10:00,
2014-10-31 04:15:00,48.7,44.1,29.87,East,81,0.0,1.0,84,0.00,,,0.00,meteobridge,2014-10-31 11:15:00,
2014-10-31 04:20:00,48.7,44.1,29.87,East,81,0.0,0.0,84,0.00,,,0.00,meteobridge,2014-10-31 11:20:00,
2014-10-31 04:25:00,48.7,44.4,29.87,East,81,0.0,0.0,85,0.00,,,0.00,meteobridge,2014-10-31 11:25:00,
2014-10-31 04:30:00,48.7,44.4,29.87,East,81,0.0,0.0,85,0.00,,,0.00,meteobridge,2014-10-31 11:30:00,
2014-10-31 04:35:00,48.7,44.1,29.87,East,81,0.0,0.0,84,0.00,,,0.00,meteobridge,2014-10-31 11:35:00,
2014-10-31 04:40:00,48.7,44.1,29.87,East,81,0.0,0.0,84,0.00,,,0.00,meteobridge,2014-10-31 11:40:00,
2014-10-31 04:45:00,48.7,44.1,29.87,East,81,0.0,0.0,84,0.00,,,0.00,meteobridge,2014-10-31 11:45:00,
2014-10-31 04:50:00,48.7,44.1,29.87,East,81,0.0,0.0,84,0.00,,,0.00,meteobridge,2014-10-31 11:50:00,
2014-10-31 04:55:00,48.7,44.1,29.87,East,81,0.0,0.0,84,0.00,,,0.00,meteobridge,2014-10-31 11:55:00,
2014-10-31 05:00:00,48.7,44.1,29.87,East,81,0.0,0.0,84,0.00,,,0.00,meteobridge,2014-10-31 12:00:00,
2014-10-31 05:05:00,48.7,44.1,29.87,East,81,0.0,0.0,84,0.00,,,0.00,meteobridge,2014-10-31 12:05:00,
2014-10-31 05:10:00,48.7,44.1,29.87,East,81,0.0,0.0,84,0.00,,,0.00,meteobridge,2014-10-31 12:10:00,
2014-10-31 05:15:00,48.7,44.1,29.87,East,79,0.0,0.0,84,0.00,,,0.00,meteobridge,2014-10-31 12:15:00,
2014-10-31 05:21:00,48.7,44.1,29.87,East,79,0.0,0.0,84,0.00,,,0.00,meteobridge,2014-10-31 12:21:00,
2014-10-31 05:26:00,48.7,43.9,29.87,East,79,0.0,0.0,83,0.00,,,0.00,meteobridge,2014-10-31 12:26:00,
2014-10-31 05:31:00,48.9,44.1,29.87,East,79,0.0,0.0,83,0.00,,,0.00,meteobridge,2014-10-31 12:31:00,
2014-10-31 05:36:00,48.9,44.2,29.86,East,80,0.0,0.0,84,0.00,,,0.00,meteobridge,2014-10-31 12:36:00,
2014-10-31 05:41:00,48.9,44.1,29.86,East,80,0.0,1.0,83,0.00,,,0.00,meteobridge,2014-10-31 12:41:00,
2014-10-31 05:46:00,48.9,44.2,29.86,East,80,0.0,0.0,84,0.00,,,0.00,meteobridge,2014-10-31 12:46:00,
2014-10-31 05:51:00,48.9,44.2,29.86,East,80,0.0,0.0,84,0.00,,,0.00,meteobridge,2014-10-31 12:51:00,
2014-10-31 05:56:00,49.1,44.2,29.85,East,80,0.0,0.0,83,0.00,,,0.00,meteobridge,2014-10-31 12:56:00,
2014-10-31 06:01:00,49.1,44.4,29.84,East,80,0.0,1.0,84,0.00,,,0.00,meteobridge,2014-10-31 13:01:00,
2014-10-31 06:06:00,49.3,44.6,29.84,East,80,0.0,0.0,84,0.00,,,0.00,meteobridge,2014-10-31 13:06:00,
2014-10-31 06:11:00,49.1,44.2,29.84,WNW,283,0.0,1.0,83,0.00,,,0.00,meteobridge,2014-10-31 13:11:00,
2014-10-31 06:16:00,49.3,44.4,29.84,WNW,283,0.0,0.0,83,0.00,,,0.00,meteobridge,2014-10-31 13:16:00,
2014-10-31 06:21:00,49.3,44.6,29.83,WNW,283,0.0,0.0,84,0.00,,,0.00,meteobridge,2014-10-31 13:21:00,
2014-10-31 06:26:00,49.3,44.4,29.83,East,82,0.0,0.0,83,0.00,,,0.00,meteobridge,2014-10-31 13:26:00,
2014-10-31 06:31:00,49.3,44.4,29.82,East,82,0.0,0.0,83,0.00,,,0.00,meteobridge,2014-10-31 13:31:00,
2014-10-31 06:36:00,49.3,44.4,29.83,East,80,0.9,1.0,83,0.00,,,0.00,meteobridge,2014-10-31 13:36:00,
2014-10-31 06:41:00,49.3,44.4,29.82,ENE,73,0.0,1.0,83,0.00,,,0.00,meteobridge,2014-10-31 13:41:00,
2014-10-31 06:46:00,49.3,44.4,29.81,NW,320,0.0,0.0,83,0.00,,,0.00,meteobridge,2014-10-31 13:46:00,
2014-10-31 06:51:00,49.3,44.4,29.81,NW,323,0.0,1.0,83,0.00,,,0.00,meteobridge,2014-10-31 13:51:00,
2014-10-31 06:56:00,49.3,44.6,29.82,North,4,0.0,1.0,84,0.00,,,0.00,meteobridge,2014-10-31 13:56:00,
2014-10-31 07:01:00,49.3,44.6,29.80,North,4,0.0,1.0,84,0.00,,,0.00,meteobridge,2014-10-31 14:01:00,
2014-10-31 07:06:00,49.3,44.6,29.80,North,4,0.0,1.0,84,0.00,,,0.00,meteobridge,2014-10-31 14:06:00,
2014-10-31 07:11:00,49.3,44.4,29.80,North,9,0.9,2.0,83,0.00,,,0.00,meteobridge,2014-10-31 14:11:00,
2014-10-31 07:16:00,49.5,44.6,29.80,North,6,0.0,1.0,83,0.00,,,0.00,meteobridge,2014-10-31 14:16:00,
2014-10-31 07:21:00,49.6,44.4,29.80,North,5,0.0,1.0,82,0.00,,,0.00,meteobridge,2014-10-31 14:21:00,
2014-10-31 07:26:00,49.6,44.8,29.80,North,5,0.0,1.0,83,0.00,,,0.00,meteobridge,2014-10-31 14:26:00,
2014-10-31 07:31:00,49.8,44.6,29.80,North,5,0.0,1.0,82,0.00,,,0.00,meteobridge,2014-10-31 14:31:00,
2014-10-31 07:36:00,49.8,44.6,29.80,North,5,0.0,1.0,82,0.00,,,0.00,meteobridge,2014-10-31 14:36:00,
2014-10-31 07:41:00,49.8,44.6,29.80,North,5,0.0,1.0,82,0.00,,,0.00,meteobridge,2014-10-31 14:41:00,
2014-10-31 07:46:00,50.0,45.0,29.80,North,6,0.0,0.0,83,0.00,,,0.00,meteobridge,2014-10-31 14:46:00,
2014-10-31 07:51:00,50.0,44.8,29.80,North,5,0.0,1.0,82,0.00,,,0.00,meteobridge,2014-10-31 14:51:00,
2014-10-31 07:56:00,50.0,45.0,29.81,North,5,0.0,0.0,83,0.00,,,0.00,meteobridge,2014-10-31 14:56:00,
2014-10-31 08:01:00,49.8,44.8,29.81,North,1,0.0,1.0,83,0.00,,,0.00,meteobridge,2014-10-31 15:01:00,
2014-10-31 08:06:00,49.8,44.8,29.81,North,1,0.0,0.0,83,0.00,,,0.00,meteobridge,2014-10-31 15:06:00,
2014-10-31 08:12:00,49.6,45.0,29.82,North,1,0.0,1.0,84,0.00,,,0.00,meteobridge,2014-10-31 15:12:00,
2014-10-31 08:17:00,49.5,44.8,29.82,North,350,0.0,0.0,84,0.00,,,0.00,meteobridge,2014-10-31 15:17:00,
2014-10-31 08:22:00,49.5,44.8,29.83,North,349,0.0,1.0,84,0.00,,,0.00,meteobridge,2014-10-31 15:22:00,
2014-10-31 08:27:00,49.6,45.0,29.83,North,349,0.0,0.0,84,0.00,,,0.00,meteobridge,2014-10-31 15:27:00,
2014-10-31 08:32:00,49.6,45.0,29.83,North,349,0.0,0.0,84,0.00,,,0.00,meteobridge,2014-10-31 15:32:00,
2014-10-31 08:37:00,49.6,45.0,29.83,North,349,0.0,0.0,84,0.00,,,0.00,meteobridge,2014-10-31 15:37:00,
2014-10-31 08:42:00,49.8,45.5,29.83,North,349,0.0,0.0,85,0.00,,,0.00,meteobridge,2014-10-31 15:42:00,
2014-10-31 08:47:00,49.8,45.5,29.83,North,349,0.0,0.0,85,0.00,,,0.00,meteobridge,2014-10-31 15:47:00,
2014-10-31 08:52:00,49.8,45.5,29.84,North,349,0.0,1.0,85,0.00,,,0.00,meteobridge,2014-10-31 15:52:00,
2014-10-31 08:57:00,50.0,45.7,29.84,North,349,0.0,0.0,85,0.00,,,0.00,meteobridge,2014-10-31 15:57:00,
2014-10-31 09:02:00,50.2,45.9,29.84,North,349,0.0,0.0,85,0.00,,,0.00,meteobridge,2014-10-31 16:02:00,
2014-10-31 09:07:00,50.4,46.0,29.85,North,349,0.0,0.0,85,0.00,,,0.00,meteobridge,2014-10-31 16:07:00,
2014-10-31 09:12:00,50.5,45.5,29.85,North,349,0.0,1.0,83,0.00,,,0.00,meteobridge,2014-10-31 16:12:00,
2014-10-31 09:17:00,50.7,45.1,29.85,East,82,0.0,1.0,81,0.00,,,0.00,meteobridge,2014-10-31 16:17:00,
2014-10-31 09:22:00,51.1,45.9,29.85,ENE,78,0.0,1.0,82,0.00,,,0.00,meteobridge,2014-10-31 16:22:00,
2014-10-31 09:27:00,51.3,46.2,29.85,ENE,78,2.0,2.0,83,0.00,,,0.00,meteobridge,2014-10-31 16:27:00,
2014-10-31 09:32:00,51.4,46.4,29.85,East,92,0.0,1.0,83,0.00,,,0.00,meteobridge,2014-10-31 16:32:00,
2014-10-31 09:37:00,51.4,46.8,29.85,ENE,62,0.0,1.0,84,0.00,,,0.00,meteobridge,2014-10-31 16:37:00,
2014-10-31 09:42:00,51.4,46.8,29.85,ENE,63,0.0,1.0,84,0.00,,,0.00,meteobridge,2014-10-31 16:42:00,
2014-10-31 09:47:00,51.4,47.1,29.85,ENE,62,0.0,1.0,85,0.00,,,0.00,meteobridge,2014-10-31 16:47:00,
2014-10-31 09:52:00,51.4,47.1,29.85,ENE,63,0.0,1.0,85,0.00,,,0.00,meteobridge,2014-10-31 16:52:00,
2014-10-31 09:57:00,51.4,47.1,29.85,ENE,62,0.0,1.0,85,0.00,,,0.00,meteobridge,2014-10-31 16:57:00,
2014-10-31 10:02:00,51.3,47.3,29.85,ENE,63,0.0,1.0,86,0.00,,,0.00,meteobridge,2014-10-31 17:02:00,
2014-10-31 10:07:00,51.3,47.3,29.84,ENE,63,0.0,0.0,86,0.00,,,0.00,meteobridge,2014-10-31 17:07:00,
2014-10-31 10:12:00,51.1,47.3,29.84,ENE,62,0.0,0.0,87,0.00,,,0.00,meteobridge,2014-10-31 17:12:00,
2014-10-31 10:17:00,51.1,47.3,29.85,ENE,63,0.0,1.0,87,0.00,,,0.00,meteobridge,2014-10-31 17:17:00,
2014-10-31 10:22:00,50.9,47.1,29.84,ENE,62,0.0,0.0,87,0.00,,,0.00,meteobridge,2014-10-31 17:22:00,
2014-10-31 10:27:00,50.9,47.5,29.84,ENE,62,0.0,0.0,88,0.00,,,0.00,meteobridge,2014-10-31 17:27:00,
2014-10-31 10:33:00,50.7,47.3,29.84,ENE,62,0.0,0.0,88,0.00,,,0.00,meteobridge,2014-10-31 17:33:00,
2014-10-31 10:38:00,50.7,47.3,29.84,ENE,62,0.0,0.0,88,0.00,,,0.00,meteobridge,2014-10-31 17:38:00,
2014-10-31 10:43:00,50.7,47.7,29.84,ENE,62,0.0,0.0,89,0.00,,,0.00,meteobridge,2014-10-31 17:43:00,
2014-10-31 10:48:00,50.5,47.5,29.84,ENE,62,0.0,0.0,89,0.00,,,0.00,meteobridge,2014-10-31 17:48:00,
2014-10-31 10:53:00,50.5,47.5,29.85,ENE,62,0.0,0.0,89,0.00,,,0.00,meteobridge,2014-10-31 17:53:00,
2014-10-31 10:58:00,50.4,47.3,29.84,ENE,57,0.0,1.0,89,0.00,,,0.00,meteobridge,2014-10-31 17:58:00,
2014-10-31 11:03:00,50.4,47.5,29.84,ENE,58,0.0,0.0,90,0.00,,,0.00,meteobridge,2014-10-31 18:03:00,
2014-10-31 11:08:00,50.2,47.3,29.84,ENE,58,0.0,0.0,90,0.00,,,0.00,meteobridge,2014-10-31 18:08:00,
2014-10-31 11:13:00,50.2,47.7,29.85,ENE,58,0.0,0.0,91,0.00,,,0.00,meteobridge,2014-10-31 18:13:00,
2014-10-31 11:18:00,50.2,47.7,29.84,ENE,58,0.0,0.0,91,0.00,,,0.00,meteobridge,2014-10-31 18:18:00,
2014-10-31 11:23:00,50.2,47.7,29.84,ENE,58,0.0,0.0,91,0.00,,,0.00,meteobridge,2014-10-31 18:23:00,
2014-10-31 11:28:00,50.2,48.0,29.84,ENE,58,0.0,0.0,92,0.00,,,0.00,meteobridge,2014-10-31 18:28:00,
2014-10-31 11:33:00,50.2,48.0,29.85,ENE,58,0.0,0.0,92,0.00,,,0.00,meteobridge,2014-10-31 18:33:00,
2014-10-31 11:38:00,50.2,48.0,29.84,ENE,58,0.0,0.0,92,0.00,,,0.00,meteobridge,2014-10-31 18:38:00,
2014-10-31 11:43:00,50.0,47.8,29.84,ENE,58,0.0,0.0,92,0.00,,,0.00,meteobridge,2014-10-31 18:43:00,
2014-10-31 11:48:00,49.8,47.7,29.84,ENE,58,0.0,0.0,92,0.00,,,0.00,meteobridge,2014-10-31 18:48:00,
2014-10-31 11:53:00,49.8,47.8,29.84,ENE,70,2.0,2.0,93,0.00,,,0.00,meteobridge,2014-10-31 18:53:00,